sat.trackr.live / text

‹ back to catalog

STARLINK-36066

NORAD 66592 · 2025-270E

PAYLOAD ACTIVE UNKNOWN

§ Identity

Operator
Country
US
Launch date
2025-11-22
Launch site
AFETR
Launch vehicle
Mass (kg)
RCS (m²)

Purposes: comms

External: N2YO · Heavens-Above · Gunter

§ Orbital elements

Epoch: 2026-09-20T16:11:38.041440Z

Period
94.27 min
Inclination
43.0010°
Eccentricity
0.0000820
Mean motion
15.27589273 rev/d
Perigee alt
482.5 km
Apogee alt
483.6 km
Semi-major
6,861.2 km
B*
4.5016e-4
RAAN
35.2410°
Arg perigee
288.1064°
Mean anomaly
71.9698°
Rev number
4,742

§ Raw data

STARLINK-360661 66592U 25270E   26263.67474585  .00012149  00000+0  45016-3 0  99942 66592  43.0010  35.2410 0000820 288.1064  71.9698 15.27589273 47428

JSON: /api/v1/satellites/66592 · /tle

For live sub-satellite position, see the globe view (requires WebGL).

§ Visibility from observer

Set your observer location to see the next 7 days of passes ≥ 10°. The values pass through the URL so the page stays shareable.

No JS? Fill the form by hand. The geolocation button needs JavaScript.